TimeCDT,TemperatureF,Dew PointF,Humidity,Sea Level PressureIn,VisibilityMPH,Wind Direction,Wind SpeedMPH,Gust SpeedMPH,PrecipitationIn,Events,Conditions,WindDirDegrees,DateUTC
12:56 AM,57.0,51.1,81,30.17,10.0,Calm,Calm,-,N/A,,Clear,0,2013-07-01 05:56:00
1:56 AM,57.0,51.1,81,30.18,10.0,Calm,Calm,-,N/A,,Clear,0,2013-07-01 06:56:00
2:56 AM,54.0,51.1,90,30.18,10.0,Calm,Calm,-,N/A,,Clear,0,2013-07-01 07:56:00
3:56 AM,53.1,50.0,89,30.19,9.0,Calm,Calm,-,N/A,,Clear,0,2013-07-01 08:56:00
4:56 AM,54.0,51.1,90,30.19,9.0,West,3.5,-,N/A,,Partly Cloudy,280,2013-07-01 09:56:00
5:56 AM,53.1,50.0,89,30.21,8.0,Calm,Calm,-,N/A,,Partly Cloudy,0,2013-07-01 10:56:00
6:56 AM,55.9,53.1,90,30.22,8.0,Calm,Calm,-,N/A,,Partly Cloudy,0,2013-07-01 11:56:00
7:56 AM,64.0,55.9,75,30.22,9.0,Calm,Calm,-,N/A,,Partly Cloudy,0,2013-07-01 12:56:00
8:56 AM,70.0,57.9,65,30.22,10.0,Calm,Calm,-,N/A,,Partly Cloudy,0,2013-07-01 13:56:00
9:56 AM,73.9,57.0,55,30.22,10.0,North,8.1,-,N/A,,Clear,360,2013-07-01 14:56:00
10:56 AM,77.0,57.0,50,30.22,10.0,North,5.8,-,N/A,,Partly Cloudy,360,2013-07-01 15:56:00
11:56 AM,79.0,55.0,44,30.22,10.0,North,6.9,-,N/A,,Scattered Clouds,10,2013-07-01 16:56:00
12:56 PM,80.1,55.9,43,30.21,10.0,North,9.2,-,N/A,,Mostly Cloudy,350,2013-07-01 17:56:00
1:56 PM,77.0,55.0,47,30.21,10.0,NNE,9.2,-,N/A,,Mostly Cloudy,20,2013-07-01 18:56:00
2:56 PM,81.0,54.0,39,30.19,10.0,NE,5.8,-,N/A,,Mostly Cloudy,50,2013-07-01 19:56:00
3:56 PM,77.0,55.0,47,30.19,10.0,North,4.6,-,N/A,,Mostly Cloudy,350,2013-07-01 20:56:00
4:56 PM,77.0,57.0,50,30.17,10.0,North,9.2,-,N/A,,Mostly Cloudy,350,2013-07-01 21:56:00
5:56 PM,82.0,55.9,41,30.16,10.0,North,3.5,-,N/A,,Mostly Cloudy,10,2013-07-01 22:56:00
6:56 PM,78.1,57.9,50,30.16,10.0,ENE,8.1,-,N/A,,Mostly Cloudy,60,2013-07-01 23:56:00
7:56 PM,75.0,57.0,53,30.15,10.0,NNE,4.6,-,N/A,,Scattered Clouds,30,2013-07-02 00:56:00
8:56 PM,72.0,57.0,59,30.15,10.0,Calm,Calm,-,N/A,,Scattered Clouds,0,2013-07-02 01:56:00
9:56 PM,66.9,55.9,68,30.15,9.0,Calm,Calm,-,N/A,,Scattered Clouds,0,2013-07-02 02:56:00
10:56 PM,66.9,55.0,66,30.15,10.0,NNE,3.5,-,N/A,,Mostly Cloudy,20,2013-07-02 03:56:00
11:56 PM,64.0,55.9,75,30.15,10.0,Calm,Calm,-,N/A,,Partly Cloudy,0,2013-07-02 04:56:00